Weather History for KCSQ - December, 2013

Change the Weather History Date:

Saturday, December 28, 2013

  Actual Average Record
Temperature  
Mean Temperature 35 °F -  
Max Temperature 44 °F 32 °F 66 °F (1984)
Min Temperature 24 °F 17 °F -9 °F (1961)
Degree Days  
Heating Degree Days 30    
Moisture  
Dew Point 28 °F    
Average Humidity 74    
Maximum Humidity 93    
Minimum Humidity 57    
Precipitation  
Precipitation 0.00 in - - ()
Sea Level Pressure  
Sea Level Pressure 29.93 in    
Wind  
Wind Speed 12 mph (SW)    
Max Wind Speed 31 mph    
Max Gust Speed 40 mph    
Visibility 10 miles    
Events      
Averages and records for this station are not official NWS values.
T = Trace of Precipitation, MM = Missing Value Source: NWS Daily Summary

Daily Weather History Graph

Daily Weather History Graph

Search for Another Location

Airport or City:

Trip Planner

Search our weather history database for the weather conditions in past years. The results will help you decide how hot, cold, wet, or windy it might be!

Date:

Astronomy

Dec. 28, 2013 Rise Set
Actual Time 7:41 AM CST 4:56 PM CST
Civil Twilight 7:10 AM CST 5:27 PM CST
Nautical Twilight 6:36 AM CST 6:02 PM CST
Astronomical Twilight 6:02 AM CST 6:35 PM CST
Moon 3:18 AM CST (12/28) 1:49 PM CST (12/28)
Length of Visible Light 10h 17m
Length of Day
9h 15m
Waning Crescent, 19% of the Moon is Illuminated
Dec 28
Waning Crescent
Jan 1
New
Jan 7
First Quarter
Jan 15
Full
Jan 23
Last Quarter

Hourly Weather History & Observations

Time (CST) Temp. Windchill Dew Point Humidity Pressure Visibility Wind Dir Wind Speed Gust Speed Precip Events Conditions
12:15 AM 33.8 °F 29.6 °F 24.8 °F 70% 30.09 in 10.0 mi SW 4.6 mph - N/A   Clear
12:35 AM 33.8 °F 27.0 °F 24.8 °F 70% 30.09 in 10.0 mi SW 8.1 mph - N/A   Clear
12:55 AM 33.8 °F 27.7 °F 26.6 °F 75% 30.08 in 10.0 mi SW 6.9 mph - N/A   Clear
1:15 AM 33.8 °F 26.4 °F 26.6 °F 75% 30.07 in 10.0 mi SW 9.2 mph - N/A   Clear
1:35 AM 33.8 °F 26.4 °F 26.6 °F 75% 30.06 in 10.0 mi SW 9.2 mph - N/A   Clear
1:55 AM 33.8 °F 24.8 °F 26.6 °F 75% 30.06 in 10.0 mi SSW 12.7 mph - N/A   Clear
2:15 AM 33.8 °F 25.8 °F 26.6 °F 75% 30.06 in 10.0 mi SSW 10.4 mph - N/A   Clear
2:35 AM 32.0 °F 23.6 °F 24.8 °F 75% 30.06 in 10.0 mi SSW 10.4 mph - N/A   Clear
2:55 AM 33.8 °F 24.3 °F 24.8 °F 70% 30.05 in 10.0 mi SSW 13.8 mph - N/A   Clear
3:15 AM 33.8 °F 24.3 °F 26.6 °F 75% 30.04 in 10.0 mi SSW 13.8 mph - N/A   Clear
3:35 AM 33.8 °F 24.8 °F 26.6 °F 75% 30.03 in 10.0 mi SSW 12.7 mph - N/A   Clear
3:55 AM 33.8 °F 23.5 °F 26.6 °F 75% 30.02 in 10.0 mi SSW 16.1 mph - N/A   Clear
4:15 AM 33.8 °F 24.3 °F 26.6 °F 75% 30.02 in 10.0 mi SSW 13.8 mph - N/A   Clear
4:35 AM 32.0 °F 22.5 °F 24.8 °F 75% 30.01 in 10.0 mi SSW 12.7 mph - N/A   Clear
4:55 AM 32.0 °F 24.2 °F 24.8 °F 75% 30.01 in 10.0 mi SSW 9.2 mph - N/A   Clear
5:15 AM 32.0 °F 23.6 °F 24.8 °F 75% 30.00 in 10.0 mi SSW 10.4 mph - N/A   Clear
5:35 AM 32.0 °F 23.6 °F 26.6 °F 80% 30.00 in 10.0 mi SSW 10.4 mph - N/A   Clear
5:55 AM 32.0 °F 23.6 °F 26.6 °F 80% 29.99 in 10.0 mi SSW 10.4 mph - N/A   Clear
6:15 AM 32.0 °F 23.6 °F 26.6 °F 80% 29.98 in 10.0 mi South 10.4 mph - N/A   Clear
6:35 AM 32.0 °F 23.0 °F 26.6 °F 80% 29.98 in 10.0 mi SSW 11.5 mph - N/A   Clear
6:55 AM 32.0 °F 23.0 °F 26.6 °F 80% 29.98 in 10.0 mi SSW 11.5 mph - N/A   Clear
7:15 AM 32.0 °F 22.5 °F 26.6 °F 80% 29.98 in 10.0 mi SSW 12.7 mph - N/A   Clear
7:35 AM 32.0 °F 22.5 °F 26.6 °F 80% 29.97 in 10.0 mi SSW 12.7 mph - N/A   Clear
7:55 AM 32.0 °F 23.0 °F 26.6 °F 80% 29.97 in 10.0 mi SSW 11.5 mph - N/A   Clear
8:15 AM 32.0 °F 22.5 °F 26.6 °F 80% 29.97 in 10.0 mi SSW 12.7 mph - N/A   Clear
8:35 AM 33.8 °F 24.8 °F 28.4 °F 81% 29.96 in 10.0 mi SSW 12.7 mph - N/A   Clear
8:55 AM 33.8 °F 24.3 °F 28.4 °F 81% 29.96 in 10.0 mi SSW 13.8 mph - N/A   Clear
9:15 AM 35.6 °F 26.2 °F 28.4 °F 75% 29.96 in 10.0 mi SSW 15.0 mph - N/A   Clear
9:35 AM 37.4 °F 28.5 °F 28.4 °F 70% 29.96 in 10.0 mi SSW 15.0 mph 20.7 mph N/A   Clear
9:55 AM 37.4 °F 28.5 °F 28.4 °F 70% 29.96 in 10.0 mi SSW 15.0 mph - N/A   Clear
10:15 AM 39.2 °F 31.2 °F 30.2 °F 70% 29.96 in 10.0 mi SSW 13.8 mph 19.6 mph N/A   Clear
10:35 AM 39.2 °F 32.0 °F 30.2 °F 70% 29.95 in 10.0 mi SSW 11.5 mph 18.4 mph N/A   Clear
10:55 AM 39.2 °F 30.5 °F 30.2 °F 70% 29.94 in 10.0 mi SSW 16.1 mph - N/A   Clear
11:15 AM 41.0 °F 33.1 °F 30.2 °F 65% 29.93 in 10.0 mi SSW 15.0 mph - N/A   Clear
11:35 AM 41.0 °F 33.5 °F 30.2 °F 65% 29.92 in 10.0 mi SSW 13.8 mph - N/A   Clear
11:55 AM 41.0 °F 32.2 °F 30.2 °F 65% 29.91 in 10.0 mi SSW 18.4 mph - N/A   Clear
12:15 PM 42.8 °F 34.8 °F 30.2 °F 61% 29.89 in 10.0 mi SSW 17.3 mph - N/A   Clear
12:35 PM 42.8 °F 34.3 °F 30.2 °F 61% 29.88 in 10.0 mi SSW 19.6 mph - N/A   Clear
12:55 PM 42.8 °F 35.4 °F 30.2 °F 61% 29.87 in 10.0 mi SSW 15.0 mph 23.0 mph N/A   Clear
1:15 PM 42.8 °F 35.4 °F 32.0 °F 66% 29.86 in 10.0 mi SSW 15.0 mph 20.7 mph N/A   Clear
1:35 PM 42.8 °F 35.4 °F 32.0 °F 66% 29.85 in 10.0 mi SSW 15.0 mph 21.9 mph N/A   Clear
1:55 PM 42.8 °F 35.1 °F 32.0 °F 66% 29.84 in 10.0 mi SSW 16.1 mph 25.3 mph N/A   Clear
2:15 PM 42.8 °F 34.3 °F 30.2 °F 61% 29.83 in 10.0 mi SSW 19.6 mph - N/A   Clear
2:35 PM 44.6 °F 37.8 °F 30.2 °F 57% 29.82 in 10.0 mi SSW 15.0 mph - N/A   Clear
2:55 PM 44.6 °F 37.2 °F 30.2 °F 57% 29.82 in 10.0 mi SSW 17.3 mph - N/A   Clear
3:15 PM 44.6 °F 36.9 °F 30.2 °F 57% 29.82 in 10.0 mi SSW 18.4 mph - N/A   Clear
3:35 PM 42.8 °F 35.1 °F 30.2 °F 61% 29.83 in 10.0 mi SSW 16.1 mph - N/A   Clear
3:55 PM 42.8 °F 35.4 °F 30.2 °F 61% 29.82 in 10.0 mi South 15.0 mph - N/A   Clear
4:15 PM 41.0 °F 32.8 °F 30.2 °F 65% 29.81 in 10.0 mi South 16.1 mph - N/A   Clear
4:35 PM 39.2 °F 31.2 °F 30.2 °F 70% 29.81 in 10.0 mi South 13.8 mph - N/A   Clear
4:55 PM 39.2 °F 31.2 °F 30.2 °F 70% 29.81 in 10.0 mi South 13.8 mph - N/A   Clear
5:15 PM 37.4 °F 29.3 °F 30.2 °F 75% 29.81 in 10.0 mi South 12.7 mph - N/A   Clear
5:35 PM 37.4 °F 28.9 °F 30.2 °F 75% 29.80 in 10.0 mi South 13.8 mph - N/A   Clear
5:55 PM 37.4 °F 30.3 °F 30.2 °F 75% 29.81 in 10.0 mi South 10.4 mph - N/A   Clear
6:15 PM 39.2 °F 32.0 °F 30.2 °F 70% 29.82 in 10.0 mi SSW 11.5 mph - N/A   Clear
6:35 PM 37.4 °F 28.5 °F 30.2 °F 75% 29.81 in - South 15.0 mph - N/A   Clear
6:55 PM 37.4 °F 29.3 °F 30.2 °F 75% 29.82 in 10.0 mi SSW 12.7 mph - N/A   Clear
7:15 PM 37.4 °F 29.8 °F 30.2 °F 75% 29.83 in 10.0 mi SSW 11.5 mph - N/A   Clear
7:35 PM 37.4 °F 30.8 °F 30.2 °F 75% 29.83 in 10.0 mi SW 9.2 mph 15.0 mph N/A   Clear
7:55 PM 37.4 °F 30.8 °F 30.2 °F 75% 29.84 in 10.0 mi SW 9.2 mph - N/A   Clear
8:15 PM 35.6 °F 28.6 °F 30.2 °F 81% 29.84 in 10.0 mi WSW 9.2 mph - N/A   Clear
8:35 PM 33.8 °F 25.8 °F 28.4 °F 81% 29.85 in 10.0 mi WSW 10.4 mph - N/A   Clear
8:55 PM 33.8 °F 23.9 °F 28.4 °F 81% 29.86 in 10.0 mi West 15.0 mph - N/A   Clear
9:15 PM 35.6 °F 24.5 °F 30.2 °F 81% 29.88 in 10.0 mi WNW 20.7 mph 26.5 mph N/A   Clear
9:35 PM 35.6 °F 24.2 °F 30.2 °F 81% 29.89 in 10.0 mi NNW 21.9 mph 27.6 mph N/A   Clear
9:55 PM 33.8 °F 22.8 °F 30.2 °F 87% 29.90 in 10.0 mi NW 18.4 mph 24.2 mph N/A   Scattered Clouds
10:15 PM 35.6 °F 24.8 °F 30.2 °F 81% 29.91 in 10.0 mi NNW 19.6 mph 27.6 mph N/A   Overcast
10:35 PM 33.8 °F 20.8 °F 30.2 °F 87% 29.92 in 10.0 mi NNW 26.5 mph 34.5 mph N/A   Overcast
10:55 PM 30.2 °F 15.7 °F 28.4 °F 93% 29.94 in 10.0 mi NNW 27.6 mph 35.7 mph N/A   Overcast
11:15 PM 28.4 °F 13.8 °F 24.8 °F 86% 29.95 in 10.0 mi NNW 25.3 mph 40.3 mph N/A   Overcast
11:35 PM 26.6 °F 11.4 °F 23.0 °F 86% 29.96 in 10.0 mi NNW 25.3 mph 38.0 mph N/A   Overcast
11:55 PM 24.8 °F 7.6 °F 21.2 °F 86% 29.97 in 10.0 mi NW 31.1 mph - N/A   Overcast